Location: Bremen
(53.0793°N, 8.8017°E)
Time: 11:08:51
(UTC+01:00)

Transit 2A - Pass Details

Date: 02 December 2021
Orbit: 591 x 967 km, 66.7° (Epoch: 23 January)

Event Time Altitude Azimuth Distance (km) Brightness Sun altitude
Exits shadow 02:43:30 12° 36° (NE) 2,512 9.1 -47.9°
Drops below altitude 10° 02:44:01 10° 37° (NE) 2,690 9.3 -47.8°
Sets 02:46:43 0° 43° (NE) 3,657 10.2 -47.5°
